[[{"header":{"parameterUnit":"m.s-1","parameterCategory":1,"la1":30.2991,"la2":30.254,"lo1":-89.0895,"lo2":-89.0444,"dy":0.0017,"dx":0.0017,"nx":28,"ny":28,"refTime":"2024-12-14T09:00:00:Z","depth":0,"parameterNumber":2,"parameterNumberName":"U-component_of_WINDS"},"data":[0,0,0,0,0,0,0,0,0,0,0,0,0,0,0,0,0,0,0,0,0,0,0,0,0,0,0,0,0,0,0,0,0,0,0,0,0,0,0,0,0,0,0,0,0,0,0,0,0,0,0,0,0,0,0,0,0,0,-5.8037,-5.8036,0,-5.8011,-5.8011,-5.801,-5.7859,-5.7856,-5.7852,-5.7849,-5.7822,-5.7825,-5.7827,0,0,0,0,0,0,0,0,0,0,0,0,0,-5.7958,-5.796,-5.8037,-5.8036,-5.8036,-5.8011,-5.8011,-5.801,-5.786,-5.7855,-5.7851,-5.7847,-5.7821,-5.7824,-5.7828,0,0,0,0,0,0,0,0,0,0,0,0,0,-5.7968,-5.7961,-5.8037,-5.7958,-5.7951,-5.8011,-5.8011,-5.801,-5.7861,-5.7855,-5.785,-5.7845,-5.782,-5.7824,-5.7828,-5.7962,0,0,-5.784,-5.7842,0,0,0,0,0,0,0,0,-5.7968,-5.7971,-5.797,-5.7963,-5.7955,-5.7933,-5.7973,-5.7994,-5.7862,-5.7895,-5.7848,-5.7842,-5.7863,-5.7863,-5.7871,-5.7961,-5.796,-5.7841,-5.7843,-5.7845,-5.7846,0,0,0,0,0,0,0,-5.7967,-5.7971,-5.8026,-5.797,-5.7961,-5.7925,-5.792,-5.7976,-5.791,-5.7892,-5.7881,-5.788,-5.7858,-5.7867,-5.7869,-5.7959,-5.7841,-5.7844,-5.7847,-5.7848,-5.8161,-5.8166,0,0,0,0,0,0,-5.7977,-5.7972,-5.8027,-5.8026,-5.7948,-5.7931,-5.7925,-5.7946,-5.7909,-5.7898,-5.7884,-5.7873,-5.7863,-5.7864,-5.7867,-5.8022,-5.7845,-5.7849,-5.7851,-5.8155,-5.8162,-5.8169,0,0,0,0,0,0,-5.7976,-5.7984,-5.8028,-5.7996,-5.7999,-5.7938,-5.7962,-5.7948,-5.7956,-5.7903,-5.7891,-5.7905,-5.7859,-5.7862,-5.794,-5.8019,-5.785,-5.7854,-5.8148,-5.8157,-5.8165,-5.8333,0,0,0,0,0,0,-5.7975,-5.7984,-5.8033,-5.7998,-5.8001,-5.8101,-5.7966,-5.7951,-5.7964,-5.7948,-5.792,-5.791,-5.7855,-5.7935,-5.7944,-5.8021,-5.7857,-5.8141,-5.8152,-5.8163,-5.832,-5.8346,-5.8369,0,0,0,0,0,-5.7972,-5.8081,-5.8037,-5.8044,-5.8061,-5.8106,-5.8107,-5.8042,-5.7971,-5.802,-5.7987,-5.7911,-5.801,-5.7944,-5.7953,-5.8033,-5.8135,-5.8149,-5.8162,-5.8309,-5.8341,-5.8368,0,0,0,0,0,0,-5.8125,-5.8074,-5.8025,-5.8125,-5.8121,-5.808,-5.814,-5.8078,-5.8093,-5.8078,-5.7996,-5.7991,-5.8082,-5.8066,-5.7994,-5.8162,-5.806,-5.8076,-5.8169,-5.8199,-5.8223,-5.8223,-5.7861,0,0,0,0,0,-5.8172,-5.8212,-5.8165,-5.8258,-5.8259,-5.8201,-5.8218,-5.8168,-5.816,-5.8157,-5.8129,-5.8125,-5.8155,-5.8177,-5.8202,-5.8319,-5.831,-5.8378,-5.8403,-5.8423,-5.8436,-5.8498,-5.8528,-5.8212,-5.8212,-5.8212,0,0,-5.8265,-5.8243,-5.8272,-5.8289,-5.8279,-5.8323,-5.82,-5.8251,-5.8283,-5.8165,-5.8237,-5.8218,-5.8208,-5.8307,-5.8349,-5.8296,-5.8523,-5.844,-5.8457,-5.8459,-5.8515,-5.8545,-5.8571,-5.8221,-5.8219,-5.8218,0,0,-5.8458,-5.8446,-5.8522,-5.8517,-5.8506,-5.8467,-5.8487,-5.8456,-5.8439,-5.8511,-5.8424,-5.8462,-5.8515,-5.8512,-5.8517,-5.8717,-5.8647,-5.8728,-5.8854,-5.8915,-5.894,-5.8961,-5.9031,-5.9058,-5.8742,-5.8743,-5.8743,0,-5.8576,-5.8638,-5.8569,-5.8627,-5.8637,-5.8536,-5.8613,-5.8612,-5.8609,-5.8619,-5.8561,-5.8628,-5.8614,-5.8711,-5.876,-5.8768,-5.8788,-5.8728,-5.8942,-5.8963,-5.8982,-5.9048,-5.9075,-5.8752,-5.8751,-5.875,-5.8749,0,-5.8784,-5.8829,-5.8893,-5.8894,-5.8912,-5.898,-5.8922,-5.8949,-5.8901,-5.8869,-5.8945,-5.8926,-5.8945,-5.8966,-5.8918,-5.9057,-5.9025,-5.8956,-5.8851,-5.9023,-5.9083,-5.9108,-5.8766,-5.8763,-5.876,-5.8757,0,0,-5.9065,-5.9033,-5.9057,-5.9058,-5.9041,-5.9075,-5.914,-5.916,-5.9185,-5.9189,-5.9241,-5.9292,-5.9229,-5.9235,-5.9187,-5.9242,-5.94,-5.9165,-5.9164,-5.9208,-5.9553,-5.9603,-5.9633,-5.9356,-5.9361,-5.9365,-5.9553,0,-5.9249,-5.9356,-5.9299,-5.9415,-5.9456,-5.9364,-5.942,-5.9417,-5.9391,-5.9424,-5.9395,-5.9431,-5.9346,-5.935,-5.94,-5.937,-5.9468,-5.9357,-5.9403,-5.9405,-5.9405,-5.9664,-5.9716,-5.9894,-5.9577,-5.9581,-5.9583,0,-5.9475,-5.9491,-5.9611,-5.959,-5.9605,-5.9657,-5.9672,-5.9705,-5.9701,-5.9678,-5.9689,-5.9629,-5.9692,-5.9592,-5.9678,-5.9604,-5.9621,-5.961,-5.9616,-5.9614,-5.9502,-5.9668,-5.995,-5.9976,-5.962,-5.9617,-5.9615,0,-5.9667,-5.9719,-5.9797,-5.9801,-5.9778,-5.9817,-5.981,-5.98,-5.9818,-5.9833,-5.9843,-5.9866,-5.9877,-5.9897,-5.9845,-5.9777,-5.9939,-5.9834,-5.9921,-5.9923,-5.9955,-5.9953,-6.0241,-5.9972,-5.9972,-5.9971,-5.9971,0,-5.9875,-5.9952,-5.9883,-5.9931,-6.0015,-5.9952,-6.0037,-6.0019,-6.0013,-6.0057,-5.998,-6.0023,-5.9953,-5.999,-5.9951,-6.0028,-6.0035,-6.0018,-6.0006,-6.0023,-6.0025,-6.0029,-6.0014,-5.9978,-5.9977,-5.9976,-5.9974,0,-6.0101,-6.0058,-6.0137,-6.0112,-6.0108,-6.0171,-6.0148,-6.0193,-6.0164,-6.0221,-6.0231,-6.0185,-6.0225,-6.0177,-6.0212,-6.0186,-6.0291,-6.0262,-6.0292,-6.0282,-6.0371,-6.0363,-6.0669,-6.0706,-6.0417,-6.042,-6.0422,0,-6.0234,-6.0291,-6.0273,-6.0298,-6.0296,-6.0336,-6.0354,-6.0296,-6.0318,-6.0321,-6.0365,-6.0399,-6.0421,-6.049,-6.046,-6.0487,-6.0456,-6.0562,-6.0459,-6.0475,-6.0455,-6.0451,-6.0456,-6.0582,-6.0585,-6.0588,-6.059,0,-6.0475,-6.0453,-6.0482,-6.0507,-6.0531,-6.0547,-6.0557,-6.0581,-6.0521,-6.0551,-6.0591,-6.0609,-6.0647,-6.0681,-6.0701,-6.0694,-6.0632,-6.0624,-6.0645,-6.0661,-6.0675,-6.0667,-6.0346,-6.0616,-6.0613,-6.0611,-6.061,-6.0609,-6.0656,-6.0704,-6.07,-6.0736,-6.0739,-6.0751,-6.0792,-6.0771,-6.0803,-6.0829,-6.0794,-6.0845,-6.0843,-6.0864,-6.0864,-6.0903,-6.0857,-6.0889,-6.0896,-6.0903,-6.0916,-6.0673,-6.0907,-6.0906,-6.0906,-6.0905,-6.0904,0,-6.0891,-6.0886,-6.0921,-6.0939,-6.0969,-6.0912,-6.0922,-6.095,-6.0995,-6.1,-6.1026,-6.1074,-6.1108,-6.1084,-6.1113,-6.1149,-6.1122,-6.1158,-6.1153,-6.1152,-6.0956,-6.0934,-6.118,-6.118,-6.118,-6.118,-6.118,-6.118,-6.1017,-6.1094,-6.1073,-6.1152,-6.1145,-6.1195,-6.1205,-6.1217,-6.122,-6.1278,-6.1307,-6.1292,-6.1285,-6.1314,-6.1344,-6.1336,-6.1349,-6.1396,-6.1378,-6.1193,-6.1166,-6.114,-6.1119,-6.14,-6.14,-6.157,-6.1571,-6.1573]},{"header":{"parameterUnit":"m.s-1","parameterCategory":1,"la1":30.2991,"la2":30.254,"lo1":-89.0895,"lo2":-89.0444,"dy":0.0017,"dx":0.0017,"nx":28,"ny":28,"refTime":"2024-12-14T09:00:00:Z","depth":0,"parameterNumber":3,"parameterNumberName":"V-component_of_WINDS"},"data":[0,0,0,0,0,0,0,0,0,0,0,0,0,0,0,0,0,0,0,0,0,0,0,0,0,0,0,0,0,0,0,0,0,0,0,0,0,0,0,0,0,0,0,0,0,0,0,0,0,0,0,0,0,0,0,0,0,0,1.2817,1.2817,0,1.2792,1.2792,1.2792,1.279,1.279,1.279,1.2791,1.2757,1.2756,1.2755,0,0,0,0,0,0,0,0,0,0,0,0,0,1.2857,1.2856,1.2817,1.2817,1.2816,1.2792,1.2792,1.2792,1.279,1.279,1.2791,1.2791,1.2758,1.2756,1.2755,0,0,0,0,0,0,0,0,0,0,0,0,0,1.2836,1.2856,1.2817,1.2813,1.2812,1.2793,1.2792,1.2792,1.279,1.279,1.2791,1.2791,1.2758,1.2756,1.2755,1.2735,0,0,1.2749,1.2749,0,0,0,0,0,0,0,0,1.2838,1.2835,1.2814,1.2813,1.2812,1.2795,1.2794,1.2772,1.279,1.2798,1.2791,1.2791,1.2769,1.2766,1.276,1.2734,1.2732,1.2749,1.2748,1.2747,1.2747,0,0,0,0,0,0,0,1.2839,1.2836,1.2807,1.2813,1.2812,1.281,1.2808,1.279,1.2781,1.2797,1.2797,1.2795,1.2768,1.2762,1.276,1.2732,1.2749,1.2748,1.2747,1.2746,1.2691,1.2691,0,0,0,0,0,0,1.2842,1.2837,1.2808,1.2806,1.2827,1.2809,1.2807,1.28,1.2781,1.2779,1.2794,1.2795,1.2765,1.2762,1.2758,1.2736,1.2747,1.2746,1.2745,1.2691,1.2691,1.269,0,0,0,0,0,0,1.2843,1.284,1.2809,1.2822,1.2818,1.2808,1.2801,1.2799,1.2793,1.2779,1.2777,1.279,1.2765,1.2761,1.2742,1.2735,1.2745,1.2743,1.2692,1.2691,1.2691,1.2691,0,0,0,0,0,0,1.2844,1.284,1.2833,1.2822,1.2817,1.2794,1.28,1.2798,1.2791,1.2791,1.2774,1.2772,1.2765,1.2745,1.2741,1.2733,1.2742,1.2692,1.2692,1.2691,1.2692,1.2691,1.269,0,0,0,0,0,1.2846,1.2832,1.2833,1.2829,1.2809,1.2794,1.2791,1.2786,1.279,1.2783,1.2775,1.2772,1.2737,1.2743,1.2738,1.273,1.2693,1.2692,1.2691,1.2692,1.2691,1.269,0,0,0,0,0,0,1.2838,1.283,1.2831,1.2813,1.2805,1.2794,1.2784,1.2784,1.2772,1.2772,1.2764,1.2761,1.2743,1.2734,1.2741,1.2712,1.2715,1.2713,1.2718,1.2716,1.2715,1.2717,1.2741,0,0,0,0,0,1.2835,1.2826,1.2818,1.2803,1.28,1.2793,1.2786,1.2784,1.2773,1.2769,1.2759,1.2747,1.2734,1.2725,1.2711,1.2691,1.2688,1.2683,1.2682,1.2681,1.2679,1.2671,1.2669,1.2687,1.2687,1.2687,0,0,1.2827,1.2822,1.2816,1.2802,1.2795,1.2785,1.2789,1.2777,1.2769,1.2766,1.2749,1.2742,1.2728,1.271,1.2701,1.2702,1.2674,1.268,1.268,1.2678,1.267,1.2668,1.2666,1.2687,1.2687,1.2687,0,0,1.2808,1.2803,1.2792,1.2786,1.2778,1.2774,1.2772,1.2761,1.2758,1.2742,1.274,1.273,1.2706,1.2698,1.269,1.2673,1.2671,1.2669,1.2663,1.2655,1.2653,1.2652,1.2647,1.2645,1.2667,1.2667,1.2667,0,1.2799,1.2785,1.2785,1.2774,1.2769,1.277,1.2758,1.2752,1.2738,1.2733,1.2736,1.271,1.27,1.2681,1.2678,1.2671,1.2668,1.267,1.2654,1.2653,1.2651,1.2646,1.2645,1.2667,1.2667,1.2667,1.2667,0,1.2775,1.2766,1.2757,1.2749,1.2742,1.273,1.2728,1.2721,1.272,1.2716,1.2701,1.2691,1.2677,1.2672,1.2669,1.2654,1.2655,1.2656,1.2659,1.2649,1.2645,1.2643,1.2667,1.2667,1.2667,1.2667,0,0,1.2747,1.2742,1.2739,1.2737,1.273,1.2721,1.2711,1.2701,1.2696,1.2687,1.2678,1.2661,1.2663,1.2655,1.2651,1.2644,1.2634,1.2646,1.2646,1.2645,1.2618,1.2617,1.2615,1.2633,1.2633,1.2633,1.2619,0,1.2727,1.2712,1.2713,1.2697,1.2689,1.2693,1.2684,1.2678,1.2675,1.2667,1.2662,1.2651,1.2654,1.265,1.2643,1.2637,1.2628,1.2638,1.2624,1.2623,1.2627,1.2613,1.2611,1.2599,1.2617,1.2617,1.2617,0,1.2702,1.2697,1.2682,1.268,1.2677,1.2669,1.2662,1.2654,1.2648,1.2647,1.264,1.2639,1.2628,1.2634,1.2618,1.2625,1.2619,1.2616,1.2615,1.2613,1.2619,1.261,1.2594,1.2593,1.2614,1.2614,1.2614,0,1.2684,1.2674,1.2665,1.2662,1.2659,1.2654,1.2652,1.2646,1.2642,1.2635,1.2632,1.2623,1.2618,1.261,1.2607,1.2611,1.2593,1.2597,1.259,1.2591,1.2585,1.2585,1.2568,1.2582,1.2582,1.2582,1.2582,0,1.2662,1.2653,1.2658,1.2651,1.2642,1.2644,1.2633,1.2631,1.2628,1.2621,1.2622,1.2615,1.2612,1.2604,1.2601,1.259,1.2587,1.2585,1.2584,1.2585,1.2585,1.258,1.2581,1.2581,1.2582,1.2582,1.2582,0,1.264,1.2643,1.2633,1.2633,1.2633,1.2626,1.2625,1.2619,1.2618,1.261,1.2608,1.2605,1.2597,1.2594,1.2582,1.2581,1.2568,1.2568,1.2571,1.2571,1.2565,1.2566,1.2544,1.2542,1.2557,1.2557,1.2557,0,1.2626,1.262,1.2621,1.2618,1.2617,1.2612,1.2609,1.2611,1.2607,1.2603,1.2598,1.2591,1.2585,1.2571,1.2567,1.2559,1.2559,1.2552,1.2557,1.2559,1.256,1.256,1.256,1.2551,1.255,1.255,1.255,0,1.26,1.2604,1.26,1.2599,1.2596,1.2594,1.2591,1.2589,1.2591,1.2586,1.258,1.2576,1.2568,1.2561,1.2554,1.255,1.255,1.2549,1.2548,1.2548,1.255,1.255,1.2569,1.2549,1.2549,1.2549,1.2549,1.2549,1.2582,1.2578,1.258,1.2577,1.2577,1.2576,1.2572,1.2573,1.2568,1.2564,1.2565,1.2558,1.2555,1.2547,1.2543,1.2537,1.2539,1.2536,1.2535,1.2534,1.2535,1.2553,1.2536,1.2536,1.2536,1.2536,1.2536,0,1.2558,1.256,1.2558,1.2558,1.2556,1.2561,1.256,1.2557,1.2553,1.2551,1.2547,1.2541,1.2536,1.2534,1.2528,1.2524,1.2524,1.2522,1.2522,1.2522,1.2533,1.2535,1.2523,1.2523,1.2523,1.2523,1.2523,1.2523,1.2545,1.2539,1.2543,1.2538,1.254,1.2536,1.2535,1.2535,1.2534,1.2529,1.2526,1.2526,1.2524,1.2519,1.2515,1.2514,1.2512,1.251,1.251,1.2519,1.2521,1.2522,1.2524,1.2509,1.2509,1.2499,1.2499,1.2499]}]]